Temperature
-5 -4 -4 -4 -4 -4 -5 -5 -5 -4 -5 -4 -5 -5 -5 -4 -4 -4 -4 -4 -5 -5 -5 -4 -4 -4 -4 -4 -4 -4 -4 -4 -3 -3 -3 -3 -3 -2 -2 -2 -2 -2 -2 -1
-5 -4 -4 -4 -4 -4 -4 -5 -5 -5 -5 -5 -5 -5 -5 -5 -5 -5 -5 -5 -5 -5 -5 -5 -5 -5 -5 -5 -5 -4 -4 -4 -4 -4 -4 -3 -3 -3 -3 -2 -2 -2 -2 -2
-5 -5 -5 -4 -5 -5 -6 -6 -6 -5 -5 -6 -6 -6 -5 -5 -5 -5 -5 -5 -5 -5 -5 -5 -5 -6 -5 -5 -5 -5 -5 -4 -4 -4 -4 -4 -4 -3 -3 -3 -3 -3 -3 -2
-6 -5 -5 -4 -6 -6 -6 -7 -7 -7 -7 -7 -6 -5 -5 -5 -5 -5 -5 -5 -6 -6 -6 -6 -6 -6 -6 -6 -5 -5 -5 -5 -5 -5 -5 -5 -4 -4 -4 -4 -4 -3 -3 -3
-6 -6 -6 -5 -6 -7 -6 -6 -8 -8 -7 -6 -6 -6 -6 -5 -5 -6 -6 -6 -6 -6 -6 -6 -6 -6 -6 -6 -6 -6 -6 -5 -5 -5 -5 -5 -5 -5 -4 -4 -4 -4 -4 -4
-7 -6 -5 -4 -6 -6 -7 -6 -7 -7 -7 -7 -7 -8 -7 -6 -6 -6 -6 -7 -7 -7 -7 -7 -7 -7 -7 -6 -6 -6 -6 -6 -6 -6 -6 -6 -6 -5 -5 -5 -5 -5 -4 -4
-8 -7 -6 -7 -7 -6 -6 -5 -6 -6 -6 -7 -7 -7 -6 -6 -7 -7 -7 -7 -7 -7 -7 -7 -7 -7 -7 -7 -7 -7 -7 -6 -6 -6 -6 -6 -6 -6 -5 -5 -5 -5 -5 -5
-8 -7 -6 -7 -8 -7 -6 -5 -6 -6 -6 -7 -7 -7 -7 -7 -7 -7 -7 -8 -8 -8 -7 -7 -7 -8 -7 -7 -7 -7 -7 -7 -7 -7 -7 -7 -6 -6 -6 -6 -6 -6 -6 -5
-7 -6 -6 -6 -6 -5 -5 -6 -6 -6 -6 -7 -7 -7 -8 -8 -8 -8 -8 -8 -8 -8 -8 -8 -8 -8 -8 -8 -8 -8 -7 -7 -7 -7 -7 -7 -7 -7 -7 -7 -7 -7 -7 -6
-8 -8 -7 -6 -5 -5 -6 -6 -6 -6 -7 -7 -7 -8 -8 -8 -8 -8 -8 -9 -9 -9 -9 -8 -8 -8 -8 -8 -8 -8 -8 -8 -8 -8 -7 -7 -7 -7 -8 -7 -7 -7 -7 -7
-8 -8 -7 -6 -5 -5 -6 -6 -6 -7 -7 -7 -8 -8 -8 -8 -8 -9 -9 -9 -9 -9 -9 -9 -9 -9 -9 -9 -9 -8 -8 -8 -8 -8 -8 -8 -8 -8 -8 -8 -8 -8 -8 -8
-7 -6 -7 -6 -5 -6 -6 -6 -7 -7 -7 -8 -8 -8 -8 -9 -9 -9 -9 -9 -10 -9 -10 -9 -9 -9 -9 -9 -9 -9 -9 -9 -9 -9 -9 -9 -9 -9 -9 -9 -9 -8 -8 -8
-5 -5 -5 -6 -6 -6 -6 -7 -7 -8 -8 -8 -8 -9 -9 -9 -9 -9 -10 -10 -10 -10 -10 -10 -10 -10 -10 -10 -10 -9 -9 -9 -9 -9 -9 -9 -10 -9 -9 -9 -9 -9 -8 -8
-6 -6 -6 -6 -7 -7 -7 -7 -8 -8 -8 -9 -9 -9 -9 -9 -10 -10 -10 -10 -10 -10 -10 -10 -10 -10 -10 -10 -10 -10 -10 -10 -10 -10 -10 -10 -10 -10 -10 -10 -9 -9 -9 -9
-6 -6 -7 -7 -7 -7 -8 -8 -8 -9 -9 -9 -9 -9 -10 -10 -10 -10 -10 -11 -11 -11 -11 -11 -11 -11 -11 -10 -10 -10 -10 -10 -10 -10 -10 -10 -10 -11 -11 -10 -10 -10 -10 -9
-7 -7 -7 -8 -8 -8 -8 -9 -9 -9 -9 -10 -10 -10 -10 -10 -10 -11 -11 -11 -11 -11 -11 -11 -11 -11 -11 -11 -11 -11 -11 -11 -11 -10 -11 -11 -11 -11 -11 -11 -11 -10 -10 -10
-8 -8 -8 -8 -8 -8 -9 -9 -9 -9 -10 -10 -10 -10 -10 -11 -11 -11 -11 -11 -11 -11 -11 -12 -12 -12 -12 -11 -11 -11 -11 -11 -11 -11 -11 -11 -11 -11 -11 -11 -11 -11 -11 -11
-8 -8 -8 -8 -8 -9 -9 -9 -10 -10 -10 -10 -10 -11 -11 -11 -11 -11 -11 -11 -11 -11 -12 -12 -12 -12 -12 -12 -12 -12 -11 -11 -11 -11 -11 -11 -12 -12 -12 -12 -12 -12 -11 -11
-8 -8 -8 -9 -9 -9 -10 -10 -10 -10 -10 -11 -11 -11 -11 -11 -11 -12 -12 -12 -12 -12 -12 -12 -12 -12 -12 -12 -12 -12 -12 -12 -12 -12 -12 -12 -12 -12 -12 -12 -12 -12 -12 -12
-9 -9 -9 -9 -9 -10 -10 -10 -10 -11 -11 -11 -11 -11 -11 -11 -12 -12 -12 -12 -12 -13 -12 -13 -13 -13 -12 -12 -12 -12 -12 -12 -12 -12 -12 -12 -12 -12 -12 -12 -12 -12 -12 -12
-9 -9 -9 -9 -10 -10 -10 -11 -11 -11 -11 -11 -11 -12 -12 -12 -12 -12 -12 -12 -12 -13 -13 -13 -13 -13 -13 -13 -13 -13 -13 -13 -13 -13 -13 -13 -13 -13 -13 -13 -13 -13 -12 -12
-9 -9 -10 -10 -10 -10 -11 -11 -11 -11 -11 -12 -12 -12 -12 -12 -12 -13 -13 -13 -13 -13 -13 -13 -13 -13 -13 -13 -13 -13 -13 -13 -13 -13 -13 -13 -13 -13 -13 -13 -13 -13 -13 -13
-10 -10 -10 -10 -11 -11 -11 -11 -12 -12 -12 -12 -12 -12 -12 -13 -13 -13 -13 -13 -13 -13 -14 -14 -14 -14 -14 -13 -13 -13 -13 -13 -13 -13 -13 -13 -13 -13 -13 -13 -13 -13 -13 -13
-10 -10 -11 -11 -11 -11 -11 -12 -12 -12 -12 -12 -13 -13 -13 -13 -13 -13 -14 -14 -14 -14 -14 -14 -14 -14 -14 -14 -14 -14 -14 -14 -14 -14 -14 -14 -14 -14 -14 -14 -14 -14 -14 -13
-10 -11 -11 -11 -11 -12 -12 -12 -12 -12 -13 -13 -13 -13 -13 -14 -14 -14 -14 -14 -14 -14 -14 -14 -14 -14 -14 -14 -14 -14 -14 -14 -14 -14 -14 -14 -14 -14 -14 -14 -14 -14 -14 -14
-11 -11 -11 -12 -12 -12 -12 -12 -13 -13 -13 -13 -13 -14 -14 -14 -14 -14 -14 -14 -14 -14 -14 -14 -14 -14 -15 -15 -15 -15 -14 -14 -14 -14 -14 -14 -14 -14 -14 -14 -14 -14 -14 -14
-11 -12 -12 -12 -12 -12 -13 -13 -13 -13 -13 -14 -14 -14 -14 -14 -14 -14 -15 -15 -15 -15 -15 -15 -15 -15 -15 -15 -15 -15 -15 -15 -15 -15 -15 -15 -15 -14 -14 -14 -14 -14 -14 -14
Wind_Speed
5 5 3 4 6 4 6 7 8 8 8 10 7 6 5 5 5 5 6 6 6 6 6 6 6 6 6 6 6 6 6 6 6 6 6 6 6 5 5 4 4 4 4 4
4 3 3 6 8 7 8 7 8 8 10 8 5 3 4 5 5 5 6 6 6 7 7 7 7 7 7 7 7 6 6 7 6 6 6 6 6 5 4 4 4 4 4 4
3 4 5 6 6 6 4 4 6 8 8 4 3 4 5 6 5 5 6 6 7 7 7 7 7 7 7 7 7 6 6 7 6 6 6 6 6 5 5 4 4 4 4 4
1 4 4 6 1 4 4 5 5 5 5 4 5 5 5 4 4 5 6 6 6 6 6 7 7 7 7 6 6 6 6 6 6 6 7 7 6 5 5 4 4 4 5 5
1 2 8 7 3 3 3 6 4 5 6 5 4 4 4 3 3 5 6 6 6 5 6 6 7 7 7 6 6 6 6 7 7 7 7 7 6 6 5 5 4 4 4 4
3 3 6 6 2 1 2 5 4 4 5 3 1 3 5 4 5 6 6 5 5 5 5 6 7 6 6 6 6 7 7 7 7 6 6 6 7 6 5 5 5 5 5 4
4 5 8 6 2 3 2 6 3 3 4 3 4 5 5 5 6 5 6 6 5 4 5 6 6 6 6 6 7 8 7 7 7 6 6 6 6 5 5 5 4 4 5 4
5 5 8 4 5 6 7 3 2 3 3 4 5 5 5 5 5 6 6 6 5 5 6 6 5 5 6 7 8 7 7 6 6 6 6 6 5 6 5 5 4 5 4 5
8 8 3 5 6 4 3 3 3 3 4 4 4 5 5 5 5 5 5 5 5 5 6 6 6 5 6 8 7 7 7 7 7 7 6 6 5 6 5 4 4 4 4 4
5 7 5 5 5 4 4 5 5 4 4 4 4 5 6 6 6 5 5 5 5 5 6 7 7 7 6 7 7 6 7 7 7 6 6 5 5 5 4 4 4 5 5 5
5 6 5 5 6 6 4 4 4 3 3 4 4 5 5 5 5 5 6 5 4 5 6 7 7 7 8 7 6 6 7 6 6 6 6 5 5 4 5 4 5 5 5 5
7 6 5 6 4 5 5 5 5 3 3 3 4 5 5 5 5 5 5 5 5 6 6 7 7 8 8 7 6 6 6 6 5 5 5 5 5 6 8 8 10 10 10 9
5 3 4 4 3 2 4 4 4 4 4 5 4 4 4 5 5 4 5 5 6 6 6 7 7 7 8 7 6 6 6 6 5 5 5 5 5 5 7 8 10 11 11 12
3 1 3 3 3 2 2 3 3 3 3 4 4 4 4 4 5 5 5 6 6 6 6 6 7 8 7 7 6 6 6 6 6 4 5 5 5 5 5 6 7 7 9 11
4 3 4 3 2 2 2 1 2 3 3 4 3 3 4 5 5 6 6 6 5 5 6 6 7 8 7 6 6 6 5 4 4 4 4 4 5 5 5 6 6 6 6 8
3 2 2 2 3 2 2 2 3 4 4 4 4 5 5 5 5 5 5 4 5 6 7 6 7 7 7 6 6 5 5 8 7 5 4 4 4 5 5 5 5 6 6 7
2 3 3 4 4 3 3 4 4 4 4 4 5 5 5 5 5 5 6 5 5 6 6 6 7 7 6 6 5 5 5 6 8 6 4 5 5 5 5 5 5 6 6 7
4 4 4 4 4 4 4 3 4 4 4 4 4 4 4 5 5 6 6 6 6 6 6 6 6 6 5 5 5 4 4 4 4 5 5 5 5 5 5 5 6 7 6 7
3 3 3 3 3 3 3 4 4 4 4 3 4 4 5 5 5 5 5 5 5 6 7 7 9 6 6 6 6 4 4 4 5 5 5 7 7 5 5 5 6 6 6 6
2 1 1 2 1 2 3 3 3 4 4 3 4 4 5 5 5 5 4 4 4 5 6 7 6 6 6 6 7 3 4 4 5 5 5 5 5 5 5 6 6 6 6 6
2 2 2 2 2 2 2 3 3 4 4 3 3 4 5 5 4 4 4 5 5 6 6 8 5 5 5 6 6 3 3 4 4 4 5 5 5 5 6 6 6 6 6 6
2 2 2 2 2 3 3 2 2 3 3 3 4 4 4 5 5 4 4 4 5 8 6 4 4 7 8 7 3 3 4 4 4 4 4 5 5 5 6 6 6 6 6 6
1 2 2 2 2 3 3 2 3 3 3 4 4 4 4 4 4 4 5 4 4 8 6 4 7 10 10 5 3 3 4 4 4 4 5 5 5 5 6 6 6 6 6 7
1 2 2 2 1 1 3 3 3 3 3 4 4 4 4 4 4 3 4 7 9 9 5 8 11 11 9 3 3 4 4 4 5 5 5 5 5 5 5 6 6 6 6 7
1 1 1 1 1 2 3 3 3 3 3 3 4 4 3 3 4 5 5 5 8 8 5 8 10 10 6 4 4 4 4 5 5 5 4 5 5 6 6 6 6 6 6 6
1 1 2 2 2 2 2 2 2 3 3 4 4 4 4 3 4 4 4 5 6 8 6 5 5 6 4 4 5 5 5 6 6 5 5 5 6 6 6 6 8 7 6 7
1 1 1 1 2 2 2 2 2 3 3 4 4 4 4 4 4 4 4 4 5 5 5 5 4 4 4 5 5 5 5 5 5 5 6 6 6 6 7 8 7 7 7 7
Wind_Direction
253 264 244 242 252 220 205 211 220 244 245 264 266 266 274 288 303 310 313 320 326 325 323 325 325 324 321 319 320 321 319 316 310 309 311 314 309 301 298 298 295 286 284 282
288 285 282 279 269 243 235 235 239 260 270 266 276 274 278 286 290 295 302 310 316 319 320 322 321 321 322 320 316 318 316 312 310 312 316 313 306 307 311 307 301 293 285 282
278 318 334 286 252 221 222 223 213 238 254 284 294 275 267 272 278 283 292 300 305 308 311 313 312 312 311 310 315 316 311 313 319 318 315 312 312 317 313 304 297 292 286 281
289 9 264 249 221 194 221 253 230 248 269 267 263 272 268 257 259 279 290 295 298 304 309 311 311 311 308 310 312 313 315 321 325 326 321 318 316 311 308 300 288 283 280 280
166 264 277 292 260 189 212 275 238 245 274 290 312 315 287 277 275 278 284 286 288 291 297 303 308 311 314 317 320 318 319 321 320 321 320 318 317 313 307 302 295 288 284 279
162 217 251 260 264 214 117 286 261 227 259 278 347 303 282 305 311 302 299 294 294 300 304 307 311 318 321 320 322 317 314 313 314 316 316 314 312 313 310 303 294 293 292 286
198 231 263 255 228 115 169 263 281 232 252 244 226 240 274 302 308 304 304 304 307 310 312 309 315 324 322 320 313 310 313 314 315 317 315 310 314 319 317 314 309 301 295 291
176 213 257 201 142 184 225 262 254 254 251 250 261 279 291 300 308 316 319 320 321 321 319 321 325 327 323 316 313 316 317 316 315 317 317 320 324 321 321 321 320 313 299 296
197 216 248 182 198 221 204 234 247 243 256 254 267 279 293 300 304 308 312 317 321 319 320 325 328 327 317 315 319 322 323 321 318 318 318 322 321 318 322 322 314 307 302 298
250 263 254 238 242 250 230 239 253 249 251 242 261 277 289 299 305 309 311 317 323 324 323 323 325 325 315 316 322 324 321 320 322 323 322 323 321 319 320 315 306 303 303 302
252 270 293 259 235 238 242 252 264 269 252 245 255 276 280 289 296 302 312 314 316 315 313 314 321 323 324 325 327 324 319 319 323 323 322 325 326 319 315 305 302 303 302 298
230 227 215 247 242 228 230 243 248 256 272 270 255 263 278 283 287 293 301 306 309 310 312 313 317 319 321 323 323 320 321 322 319 319 322 326 326 328 329 326 324 322 319 312
231 241 228 255 267 228 222 238 245 244 249 266 269 263 270 279 286 292 299 303 302 303 306 309 313 316 320 323 323 319 315 317 316 319 321 322 323 325 326 332 335 334 331 327
237 215 256 248 247 253 250 258 260 265 266 264 268 277 279 283 291 295 296 298 300 303 306 308 312 314 318 320 321 319 316 317 321 317 317 318 318 318 318 321 327 330 332 330
255 230 236 252 258 273 276 270 278 284 288 291 285 285 289 291 292 293 297 303 310 310 310 313 314 315 321 323 322 320 320 319 316 316 317 317 318 319 318 317 317 319 324 329
272 260 244 242 252 266 273 255 259 271 277 282 285 287 287 286 289 294 300 304 308 307 308 309 308 312 319 323 321 320 318 321 327 325 323 321 319 318 318 318 318 319 321 323
231 262 259 265 266 264 254 250 251 260 267 272 279 289 297 302 305 306 306 302 293 293 298 302 305 313 320 322 318 317 317 320 326 328 323 318 316 315 315 316 316 317 316 318
228 238 237 241 251 260 264 265 263 264 266 272 285 291 292 293 294 298 302 308 309 308 309 309 312 318 320 320 320 320 318 317 320 319 319 319 318 315 314 313 313 314 315 320
262 257 250 251 248 246 255 266 273 275 279 282 283 282 280 282 287 294 303 309 311 312 318 319 324 328 321 318 326 318 318 319 320 320 320 323 326 324 321 318 316 316 317 321
289 293 276 279 278 261 268 277 279 281 283 281 283 289 294 295 296 300 300 294 289 290 303 314 319 318 314 316 323 318 317 315 315 317 321 321 321 322 322 322 321 320 319 319
289 300 301 294 295 291 281 277 277 282 289 284 277 282 287 294 298 297 300 302 302 306 310 316 321 313 312 316 318 321 318 316 315 314 315 316 317 318 319 320 319 318 319 319
281 283 284 287 291 296 295 289 281 284 295 295 290 291 296 301 303 300 283 280 300 319 324 312 309 314 321 322 326 321 317 316 314 314 313 313 314 313 315 316 315 315 316 317
274 275 276 277 278 286 299 297 291 289 292 296 297 296 293 290 291 296 303 306 309 317 322 310 315 320 324 333 325 316 315 315 313 312 310 309 308 308 310 311 311 313 315 316
275 281 282 289 298 306 306 303 302 299 291 288 291 291 293 297 298 281 281 306 318 319 316 314 321 322 327 335 317 312 309 307 305 304 304 304 304 304 305 306 307 309 311 311
269 275 286 301 297 289 291 304 312 311 307 305 303 302 296 282 284 298 300 302 313 320 316 318 323 326 330 318 310 305 303 300 302 304 303 305 304 304 304 304 305 306 308 309
290 283 274 269 273 283 298 310 312 312 314 315 316 315 310 303 295 298 302 305 307 317 319 313 316 319 318 311 305 304 302 306 310 308 303 301 301 302 302 304 303 304 305 305
339 325 316 316 314 310 307 303 301 303 306 304 305 309 314 316 315 315 313 313 315 315 312 314 315 313 311 309 307 305 302 301 300 299 299 298 296 296 298 297 298 299 300 301
Height
1546 1544 1543 1542 1540 1540 1541 1540 1539 1532 1531 1524 1522 1521 1519 1517 1515 1514 1511 1509 1507 1504 1501 1499 1496 1493 1491 1489 1486 1484 1482 1479 1477 1475 1473 1471 1470 1469 1468 1466 1465 1465 1465 1464
1546 1541 1541 1538 1534 1535 1534 1534 1534 1530 1527 1520 1519 1519 1517 1515 1513 1511 1509 1507 1505 1502 1499 1496 1493 1490 1488 1485 1483 1481 1479 1476 1474 1472 1469 1468 1466 1465 1463 1462 1462 1461 1461 1460
1546 1544 1540 1536 1531 1531 1531 1529 1529 1527 1523 1519 1518 1516 1514 1513 1511 1509 1507 1505 1502 1499 1497 1494 1491 1488 1485 1482 1480 1478 1475 1472 1470 1468 1466 1464 1462 1460 1459 1458 1458 1457 1457 1456
1549 1547 1545 1530 1527 1527 1527 1525 1524 1522 1519 1517 1516 1514 1512 1511 1509 1507 1505 1502 1500 1497 1494 1491 1488 1485 1483 1480 1477 1474 1472 1469 1467 1464 1462 1460 1459 1457 1455 1455 1454 1453 1452 1452
1551 1551 1541 1529 1525 1526 1526 1523 1519 1519 1517 1515 1514 1512 1510 1508 1507 1505 1503 1501 1498 1495 1492 1489 1486 1483 1479 1476 1474 1471 1468 1466 1464 1461 1459 1457 1455 1453 1452 1450 1449 1449 1448 1448
1551 1547 1539 1526 1523 1522 1525 1523 1515 1515 1514 1513 1513 1513 1508 1506 1504 1502 1500 1498 1495 1492 1489 1486 1483 1480 1476 1473 1471 1468 1466 1463 1461 1459 1457 1454 1452 1450 1448 1447 1446 1445 1444 1444
1549 1547 1534 1524 1522 1523 1528 1520 1514 1512 1511 1511 1510 1509 1507 1504 1501 1499 1497 1494 1492 1489 1486 1483 1480 1476 1473 1470 1468 1466 1463 1461 1459 1456 1454 1451 1449 1447 1445 1443 1442 1441 1440 1440
1546 1545 1532 1519 1520 1522 1518 1513 1511 1510 1509 1508 1507 1505 1503 1501 1498 1496 1493 1491 1488 1485 1482 1480 1477 1474 1471 1468 1466 1463 1461 1458 1456 1453 1451 1449 1446 1444 1442 1440 1438 1437 1437 1436
1529 1523 1515 1514 1513 1512 1512 1511 1509 1508 1507 1506 1504 1502 1500 1498 1496 1493 1491 1488 1486 1483 1480 1477 1474 1472 1469 1466 1464 1461 1458 1456 1453 1451 1449 1446 1444 1441 1439 1437 1436 1435 1433 1432
1522 1514 1512 1511 1510 1510 1509 1508 1507 1506 1505 1503 1501 1499 1497 1495 1493 1490 1488 1486 1483 1480 1477 1475 1472 1470 1467 1464 1461 1458 1455 1453 1450 1448 1445 1444 1442 1439 1437 1435 1433 1431 1430 1429
1518 1511 1509 1507 1507 1506 1506 1505 1504 1503 1502 1500 1499 1497 1495 1492 1490 1488 1486 1483 1481 1478 1475 1472 1469 1467 1464 1461 1458 1456 1453 1451 1448 1445 1443 1441 1439 1437 1434 1433 1431 1429 1427 1426
1510 1505 1506 1504 1503 1503 1502 1501 1501 1500 1498 1497 1496 1494 1492 1490 1488 1486 1483 1481 1478 1475 1473 1470 1467 1464 1461 1459 1456 1453 1450 1448 1446 1443 1441 1438 1435 1433 1432 1430 1428 1426 1425 1423
1503 1502 1502 1501 1501 1500 1499 1498 1497 1496 1495 1494 1492 1491 1489 1487 1485 1483 1480 1478 1475 1473 1470 1467 1464 1461 1459 1456 1454 1451 1448 1446 1443 1441 1439 1436 1434 1431 1428 1427 1425 1423 1421 1420
1500 1500 1499 1498 1498 1497 1496 1495 1494 1493 1492 1491 1490 1488 1486 1484 1482 1480 1477 1475 1472 1470 1467 1465 1462 1459 1456 1454 1451 1449 1446 1444 1442 1439 1437 1435 1432 1430 1427 1424 1421 1419 1418 1417
1497 1497 1497 1495 1495 1494 1493 1492 1491 1490 1489 1488 1486 1485 1483 1480 1478 1476 1474 1472 1469 1467 1464 1462 1459 1457 1454 1452 1449 1447 1444 1442 1440 1438 1435 1433 1430 1428 1425 1423 1420 1418 1415 1413
1494 1494 1493 1492 1491 1490 1489 1488 1487 1486 1485 1484 1483 1481 1479 1477 1475 1473 1471 1469 1466 1464 1462 1459 1457 1455 1452 1450 1447 1445 1443 1441 1438 1436 1433 1431 1428 1426 1424 1421 1419 1416 1414 1411
1491 1490 1489 1488 1487 1487 1486 1485 1484 1483 1482 1480 1479 1478 1476 1474 1472 1470 1468 1466 1464 1462 1460 1457 1455 1453 1450 1448 1445 1443 1441 1439 1437 1434 1432 1429 1427 1424 1422 1420 1417 1415 1412 1410
1488 1487 1487 1486 1484 1483 1483 1482 1481 1480 1479 1477 1476 1474 1472 1470 1468 1466 1465 1463 1461 1459 1457 1455 1453 1450 1448 1446 1443 1441 1439 1437 1435 1432 1430 1427 1425 1423 1420 1418 1415 1413 1410 1408
1485 1485 1484 1483 1482 1481 1480 1479 1478 1477 1476 1474 1473 1471 1469 1468 1466 1464 1462 1460 1458 1456 1454 1452 1450 1448 1446 1444 1441 1439 1437 1435 1433 1430 1428 1426 1423 1421 1418 1416 1413 1411 1408 1405
1482 1482 1481 1480 1480 1479 1477 1476 1475 1474 1473 1471 1470 1468 1466 1465 1463 1461 1459 1457 1456 1453 1452 1450 1448 1445 1443 1441 1439 1437 1435 1433 1431 1428 1426 1423 1421 1418 1416 1414 1411 1409 1406 1403
1480 1479 1478 1478 1477 1476 1475 1473 1472 1471 1470 1468 1467 1465 1463 1462 1460 1458 1456 1454 1453 1451 1449 1447 1445 1443 1441 1439 1437 1435 1433 1431 1428 1426 1424 1421 1419 1416 1414 1411 1409 1406 1403 1401
1477 1477 1476 1475 1474 1473 1472 1471 1470 1468 1467 1466 1464 1463 1461 1459 1457 1455 1454 1452 1450 1448 1446 1444 1442 1440 1439 1437 1434 1432 1430 1428 1426 1424 1421 1419 1417 1414 1412 1409 1406 1404 1401 1398
1475 1475 1474 1473 1472 1471 1470 1469 1467 1466 1464 1463 1462 1460 1458 1456 1454 1452 1450 1449 1447 1445 1443 1441 1439 1438 1436 1434 1431 1429 1427 1425 1423 1421 1419 1417 1414 1412 1409 1407 1404 1401 1399 1396
1473 1472 1472 1471 1470 1469 1467 1466 1465 1464 1462 1461 1459 1458 1456 1454 1452 1450 1448 1446 1444 1442 1440 1438 1436 1434 1432 1430 1428 1426 1424 1422 1420 1418 1416 1414 1412 1409 1407 1404 1401 1399 1396 1393
1471 1470 1469 1468 1467 1466 1465 1464 1462 1461 1460 1458 1457 1455 1453 1451 1449 1447 1445 1443 1441 1439 1437 1435 1433 1431 1429 1427 1425 1423 1421 1419 1417 1415 1413 1411 1408 1406 1404 1401 1399 1396 1393 1390
1469 1468 1467 1466 1465 1464 1463 1461 1460 1458 1457 1455 1454 1452 1450 1449 1447 1444 1442 1440 1438 1436 1434 1431 1429 1427 1425 1423 1422 1420 1418 1416 1414 1412 1409 1407 1405 1403 1400 1398 1395 1393 1390 1387
1467 1466 1465 1464 1463 1462 1460 1459 1457 1456 1454 1452 1451 1449 1447 1445 1443 1441 1439 1437 1435 1432 1430 1428 1426 1424 1422 1420 1418 1416 1414 1412 1410 1408 1406 1404 1402 1399 1397 1394 1392 1389 1387 1384